Weather Roundup
Issued by NWS Chicago, IL

Home | Current Version | Previous Version | Text Only | Print | Product List | Glossary On
Versions: 1 2 3 4 5 6 7 8 9 10 11 12 13 14 15 16 17 18 19 20 21 22 23 24 25 26 27 28 29 30 31 32 33 34 35 36 37 38 39 40 41 42 43 44 45 46 47 48 49 50
000
NZUS59 KLOT 080508
HRRLOT

CHICAGO AREA WEATHER ROUNDUP
NATIONAL WEATHER SERVICE CHICAGO/ROMEOVILLE IL
1200 AM CDT WED JUL 08 2015

NOTE: "FAIR" INDICATES FEW OR NO CLOUDS BELOW 12,000 FEET WITH NO
SIGNIFICANT WEATHER AND/OR OBSTRUCTIONS TO VISIBILITY.

* THESE STATIONS ARE NOT UNDER NWS QUALITY CONTROL. THEY ALSO MAY NOT
  REPORT WEATHER SUCH AS PRECIPITATION OR FOG.

ILZ005-006-012>014-019>023-080600-
NORTHEAST ILLINOIS

CITY           SKY/WX    TMP DP  RH WIND       PRES   REMARKS
OHARE          MOCLDY    56  47  71 N6        30.11S
MIDWAY         MOCLDY    59  46  62 N7        30.10S
AURORA         MOCLDY    55  48  77 NE3       30.11S
LANSING*       PTCLDY    57  46  66 N7        30.10S
JOLIET*        PTCLDY    57  49  76 CALM      30.11S
WAUKEGAN       PTCLDY    50  48  93 CALM      30.11R
DUPAGE AIRPORT MOCLDY    53  47  79 N6        30.11S
WHEELING       MOCLDY    54  48  80 N3        30.13R
KANKAKEE*      PTCLDY    57  50  78 N3        30.11S
MORRIS*        PTCLDY    56  51  84 CALM      30.08S
LEWIS AIRPORT* MOCLDY    54  47  77 NE6       30.11S
NORTHERLY IS     N/A     58  48  69 N10         N/A
$$

WIZ051-052-058>065-066-070>072-080600-
SOUTHEAST WISCONSIN

CITY           SKY/WX    TMP DP  RH WIND       PRES   REMARKS
MILWAUKEE      PTCLDY    55  45  68 N5        30.12R
KENOSHA*       PTCLDY    54  47  77 N6        30.12R
RACINE*        CLEAR     55  47  74 CALM      30.14R
BURLINGTON     CLEAR     48  47  98 CALM      30.13R
WAUKESHA       CLEAR     52  45  76 CALM      30.14R
WEST BEND      CLEAR     50  46  87 CALM      30.13R
$$

INZ001>003-010>013-019-020-080600-
NORTHWEST INDIANA

CITY           SKY/WX    TMP DP  RH WIND       PRES   REMARKS
GARY*          PTCLDY    59  51  73 N10       30.10S
MICHIGAN CITY* NOT AVBL
RENSSELAER*    NOT AVBL
VALPARAISO     PTCLDY    56  49  77 N5        30.08S
$$

LMZ740>746-080600-
SOUTHERN LAKE MICHIGAN

STATION/POSITION TIME  SKY/WX   TEMP WIND        PRES    VSBY
                                AIR  DIR/SP/G
                 (UTC)          (F)  (DEG/KT/KT) (MB)    (MI)
HARRISON CRIB    0400            58  360/ 12/ 15   N/A
BURNHAM HARBOR   0500            58  350/  8/ 13   N/A
CALUMET HARBOR   0400            58  350/  7/  9   N/A
BURNS HARBOR     0400            61   10/ 14/ 18 1019.3S
MICHIGAN CITY    0400            60  360/ 18/ 19   N/A
$$

ABBREVIATIONS USED IN REMARKS
   TC - TEMPERATURE IN CELSIUS
  WCI - WIND CHILL INDEX
   HX - HEAT INDEX
  VSB - VISIBILITY
$$


USA.gov is the U.S. government's official web portal to all federal, state and local government web resources and services.